Lexington Weather

Lexington, Massachusetts, USA

69°F
6/18/2024 1:56am 
  • Lexington Conditions: Clear
  • Temperature: 68.9°F / 20.5°CColder 0.5°F than last hour.
  • Dew Point: 62.4°FIncreased 0.2°Fsince last hour.
  • Relative Humidity: 80%Increased 2.0% since last hour.
  • Wind: Calm, 10-min avg: Calm, gust: 4 mph
  • Barometer: 30.09 in Steady
  • Visibility: 10 miles
  • Rain Today: 0.00 in
  •   
Southeast Middlesex County, MA - Heat Advisory - Excessive Heat Watch
 - SEE ALL NEARBY ALERTS -

Regional Weather Roundup
for Boston, MA

        
000
ASUS41 KBOX 130010
RWRBOX

REGIONAL WEATHER ROUNDUP
NATIONAL WEATHER SERVICE BOSTON/NORTON MA
800 PM EDT WED JUN 12 2024

NOTE:  "FAIR" INDICATES FEW OR NO CLOUDS BELOW 12,000 FEET WITH NO 
SIGNIFICANT WEATHER AND/OR OBSTRUCTIONS TO VISIBILITY.

MAZALL-130100-
EASTERN MASSACHUSETTS
  
CITY           SKY/WX    TMP DP  RH WIND       PRES   REMARKS
BOSTON         MOCLDY    68  58  70 SE8       29.94S                  
6HR MIN TEMP:  68; 6HR MAX TEMP:  73;                                

BEVERLY        MOCLDY    67  58  72 SE5       29.93S                  
LAWRENCE       PTCLDY    70  58  65 SE3       29.95S                  
BEDFORD        PTCLDY    69  58  67 E5        29.92S                  
NORWOOD        MOCLDY    72  62  71 SE3       29.93S                  
MARSHFIELD     CLEAR     70  57  64 S6        29.94S                  
PLYMOUTH       CLEAR     69  57  65 S6        29.95S                  
TAUNTON        CLEAR     72  57  59 S3        29.94S                  
NEW BEDFORD    CLEAR     69  57  65 SW8       29.95S                  
$$

MAZALL-130100-
CAPE COD AND THE ISLANDS
  
CITY           SKY/WX    TMP DP  RH WIND       PRES   REMARKS
FALMOUTH       CLEAR     66  57  72 SW9       29.99R                  
HYANNIS        CLEAR     67  56  67 SW14      29.96S                  
CHATHAM        CLEAR     66  61  84 SW7       29.97F                  
PROVINCETOWN   MOCLDY    67  60  78 SW9       29.97S                  
NANTUCKET      CLEAR     61  59  93 SW8       30.00S                  
MARTHAS VNYRD  CLEAR     64  61  90 SW9       29.98S                  
$$
 
MAZALL-130100-
CENTRAL AND WESTERN MASSACHUSETTS
  
CITY           SKY/WX    TMP DP  RH WIND       PRES   REMARKS
WORCESTER      CLEAR     70  53  54 W6        29.97S                  
6HR MIN TEMP:  70; 6HR MAX TEMP:  76;                                

FITCHBURG      CLEAR     73  53  49 W5        29.95R                  
ORANGE         MOCLDY    71  54  54 W8        29.97R                  
SPRINGFIELD    PTCLDY    73  53  48 NW9       29.93R                  
WESTFIELD      CLOUDY    73  54  51 W10       29.96R                  
NORTH ADAMS    CLOUDY    72  53  51 MISG      29.99R                  
PITTSFIELD     PTCLDY    63  51  65 W9        30.00R                  
$$
 
RIZALL-130100-
RHODE ISLAND
  
CITY           SKY/WX    TMP DP  RH WIND       PRES   REMARKS
PROVIDENCE     PTCLDY    71  57  61 SW9       29.95R                  
6HR MIN TEMP:  71; 6HR MAX TEMP:  78;                                

NEWPORT        CLEAR     65  55  70 S7        29.96S                  
BLOCK ISLAND   PTCLDY    64  58  80 SW14      29.99S                  
SMITHFIELD     MOCLDY    70  59  68 SW3       29.96R                  
WESTERLY       PTCLDY    68  56  65 W10       29.97S                  
$$
 
CTZALL-130100-
CONNECTICUT
  
CITY           SKY/WX    TMP DP  RH WIND       PRES   REMARKS
BRADLEY INTL   MOCLDY    74  54  49 W10       29.96R                  
6HR MIN TEMP:  74; 6HR MAX TEMP:  82;                                

HARTFORD       PTCLDY    74  53  48 W9        29.96R                  
PLAINVILLE     PTCLDY    72  54  53 VRB5      29.98R                  
BRIDGEPORT     PTCLDY    71  58  63 SW8       29.99R                  
DANBURY        MOCLDY    71  50  47 MISG      30.01R                  
GROTON         PTCLDY    69  55  60 W8        29.97R                  
NEW HAVEN      PTCLDY    72  56  57 SW7       29.99R                  
CHESTER        CLEAR     70  55  60 SW5       29.99R                  
MERIDEN        CLEAR     72  50  45 CALM      29.98R                  
WILLIMANTIC    CLEAR     72  54  53 SW7       29.97R                  
OXFORD         PTCLDY    68  53  58 W3        30.01S                  
$$

MEZ002-015-021-024-NHZ003-005-008-011-012-014-VTZ005-008-130100-
NORTHERN NEW ENGLAND
  
CITY           SKY/WX    TMP DP  RH WIND       PRES   REMARKS
PORTLAND ME    MOCLDY    64  59  83 SW6       29.95R                  
6HR MIN TEMP:  64; 6HR MAX TEMP:  71; 6HR PCP: TRACE;                

BANGOR ME      MOCLDY    62  57  83 S7        29.92S                  
CONCORD NH     CLOUDY    68  61  78 SE3       29.94R                  
MANCHESTER NH  MOCLDY    72  59  63 SE6       29.92S                  
NASHUA NH      CLOUDY    72  59  63 SE6       29.94S                  
PORTSMOUTH NH  MOCLDY    67  60  79 SE6       29.93S                  
JAFFREY NH     CLEAR     71  55  56 CALM      29.97R                  
KEENE NH       PTCLDY    71  55  56 NW3       29.95R                  
BURLINGTON VT  MOCLDY    69  53  56 NW3       29.96R                  
MT. WASHINGTON FOG       45  45 100 W21         N/A  VSB 1/16         
$$

NYZ052-076-130100-
EASTERN NEW YORK
  
CITY           SKY/WX    TMP DP  RH WIND       PRES   REMARKS
ALBANY         MOCLDY    67  50  54 W7        30.00R                  
6HR MIN TEMP:  67; 6HR MAX TEMP:  74;                                

NEW YORK CITY  PTCLDY    73  54  51 VRB7G18   29.99S                  
6HR MIN TEMP:  72; 6HR MAX TEMP:  78;                                

$$
 
ANZALL-130100-
MARINE OBSERVATIONS
  
STATION/POSITION TIME  TEMP    WIND        PRES    VSBY  WAVE
                       AIR SEA DIR/SP/G                  HT/PER
                 (UTC) (F)     (DEG/KT/KT) (MB)    (MI)  (FT/S)
BOSTON BUOY      2340   67 65  160/ 10/ 12 1014.2R
BUZZARDS BAY     2300   64     230/ 19/ 21 1014.9S
NANTUCKET SOUND  2350   66 67  220/ 12/ 16 1014.5S         1/ 3
MASS BAY-STELLWA 2204   67 66  170/  6/  6 1013.9F  1 7/8  1/ 8
ISLE OF SHOALS   2300   64     130/  8/  8 1013.4R
S OF BLOCK IS    2356      63                N/A           3/ 4
$$

......................KEY.........................
  SKY/WX - SKY CONDITION/PRESENT WEATHER
  TMP    - TEMPERATURE IN FAHRENHEIT
  DWPT   - DEWPOINT IN FAHRENHEIT
  RH     - RELATIVE HUMIDITY IN PERCENT
  WIND   - DIRECTION AND SPEED IN MPH
  PRES   - MEAN SEA LEVEL PRESSURE IN INCHES OF HG
  WCI    - WIND CHILL INDEX
  VSB    - VISIBILITY IN MILES
  HX     - HEAT INDEX
  TC     - TEMPERATURE IN CELSIUS
  VRB    - VARIABLE WIND DIRECTION
  N/A    - NOT AVAILABLE
  
      

Other recent Regional Weather Roundups

Tue Jun 18, 1:10am EDT

Tue Jun 18, 12:10am EDT

Mon Jun 17, 11:10pm EDT

Mon Jun 17, 10:10pm EDT

Mon Jun 17, 9:10pm EDT

Mon Jun 17, 8:10pm EDT

Mon Jun 17, 7:10pm EDT

Mon Jun 17, 6:10pm EDT

Mon Jun 17, 5:10pm EDT

Mon Jun 17, 4:10pm EDT

Mon Jun 17, 3:10pm EDT

Mon Jun 17, 2:10pm EDT

Mon Jun 17, 1:10pm EDT

Mon Jun 17, 12:10pm EDT

Mon Jun 17, 11:10am EDT

Mon Jun 17, 10:10am EDT

Mon Jun 17, 9:10am EDT

Mon Jun 17, 8:10am EDT

Mon Jun 17, 7:10am EDT

Mon Jun 17, 6:10am EDT

Mon Jun 17, 5:10am EDT

Mon Jun 17, 4:10am EDT

Mon Jun 17, 3:10am EDT

Mon Jun 17, 2:10am EDT

Mon Jun 17, 1:10am EDT

Mon Jun 17, 12:10am EDT

Sun Jun 16, 11:10pm EDT

Sun Jun 16, 10:10pm EDT

Sun Jun 16, 9:10pm EDT

Sun Jun 16, 8:10pm EDT

Sun Jun 16, 7:10pm EDT

Sun Jun 16, 6:10pm EDT

Sun Jun 16, 5:10pm EDT

Sun Jun 16, 4:10pm EDT

Sun Jun 16, 3:10pm EDT

Sun Jun 16, 2:10pm EDT

Sun Jun 16, 1:10pm EDT

Sun Jun 16, 12:10pm EDT

Sun Jun 16, 11:10am EDT

Sun Jun 16, 10:10am EDT

Sun Jun 16, 9:10am EDT

Sun Jun 16, 8:10am EDT

Sun Jun 16, 7:10am EDT

Sun Jun 16, 6:10am EDT

Sun Jun 16, 5:10am EDT

Sun Jun 16, 4:10am EDT

Sun Jun 16, 3:10am EDT

Sun Jun 16, 2:10am EDT

Sun Jun 16, 1:10am EDT

Sun Jun 16, 12:10am EDT

Sat Jun 15, 11:10pm EDT

Sat Jun 15, 10:10pm EDT

Sat Jun 15, 9:10pm EDT

Sat Jun 15, 8:10pm EDT

Sat Jun 15, 7:10pm EDT

Sat Jun 15, 6:10pm EDT

Sat Jun 15, 5:10pm EDT

Sat Jun 15, 4:10pm EDT

Sat Jun 15, 3:10pm EDT

Sat Jun 15, 2:10pm EDT

Sat Jun 15, 1:10pm EDT

Sat Jun 15, 12:10pm EDT

Sat Jun 15, 11:10am EDT

Sat Jun 15, 10:10am EDT

Sat Jun 15, 9:10am EDT

Sat Jun 15, 8:10am EDT

Sat Jun 15, 7:10am EDT

Sat Jun 15, 6:10am EDT

Sat Jun 15, 5:10am EDT

Sat Jun 15, 4:10am EDT

Sat Jun 15, 3:10am EDT

Sat Jun 15, 2:10am EDT

Sat Jun 15, 1:10am EDT

Sat Jun 15, 12:10am EDT

Fri Jun 14, 11:10pm EDT

Fri Jun 14, 10:10pm EDT

Fri Jun 14, 9:10pm EDT

Fri Jun 14, 8:10pm EDT

Fri Jun 14, 7:10pm EDT

Fri Jun 14, 6:10pm EDT

Fri Jun 14, 5:10pm EDT

Fri Jun 14, 4:10pm EDT

Fri Jun 14, 3:10pm EDT

Fri Jun 14, 2:10pm EDT

Fri Jun 14, 1:10pm EDT

Fri Jun 14, 12:10pm EDT

Fri Jun 14, 11:10am EDT

Fri Jun 14, 10:10am EDT

Fri Jun 14, 9:10am EDT

Fri Jun 14, 8:10am EDT

Fri Jun 14, 7:10am EDT

Fri Jun 14, 6:10am EDT

Fri Jun 14, 5:10am EDT

Fri Jun 14, 4:10am EDT

Fri Jun 14, 3:10am EDT

Fri Jun 14, 2:10am EDT

Fri Jun 14, 1:10am EDT

Fri Jun 14, 12:10am EDT

Thu Jun 13, 11:10pm EDT

Thu Jun 13, 10:10pm EDT

Thu Jun 13, 9:10pm EDT

Thu Jun 13, 8:10pm EDT

Thu Jun 13, 7:10pm EDT

Thu Jun 13, 6:10pm EDT

Thu Jun 13, 5:10pm EDT

Thu Jun 13, 4:10pm EDT

Thu Jun 13, 3:10pm EDT

Thu Jun 13, 2:10pm EDT

Thu Jun 13, 1:10pm EDT

Thu Jun 13, 12:10pm EDT

Thu Jun 13, 11:10am EDT

Thu Jun 13, 10:10am EDT

Thu Jun 13, 9:10am EDT

Thu Jun 13, 8:10am EDT

Thu Jun 13, 7:10am EDT

Thu Jun 13, 6:10am EDT

Thu Jun 13, 5:10am EDT

Thu Jun 13, 4:10am EDT

Thu Jun 13, 3:10am EDT

Thu Jun 13, 2:10am EDT

Thu Jun 13, 1:10am EDT

Thu Jun 13, 12:10am EDT

Wed Jun 12, 11:10pm EDT

Wed Jun 12, 10:10pm EDT

Wed Jun 12, 9:10pm EDT

Wed Jun 12, 7:10pm EDT

Wed Jun 12, 6:10pm EDT

Wed Jun 12, 5:10pm EDT

Wed Jun 12, 4:10pm EDT

Wed Jun 12, 3:10pm EDT

Wed Jun 12, 2:10pm EDT

Wed Jun 12, 1:10pm EDT

Wed Jun 12, 12:10pm EDT

Wed Jun 12, 11:10am EDT

Wed Jun 12, 10:10am EDT

Wed Jun 12, 9:10am EDT

Wed Jun 12, 8:10am EDT

Wed Jun 12, 7:10am EDT

Wed Jun 12, 6:10am EDT

Wed Jun 12, 5:10am EDT

Wed Jun 12, 4:10am EDT

Wed Jun 12, 3:10am EDT

Wed Jun 12, 2:10am EDT

Wed Jun 12, 1:10am EDT

Wed Jun 12, 12:10am EDT

Tue Jun 11, 11:10pm EDT

Tue Jun 11, 10:10pm EDT

Tue Jun 11, 9:10pm EDT

Tue Jun 11, 8:10pm EDT

Tue Jun 11, 7:10pm EDT

Tue Jun 11, 6:10pm EDT

Tue Jun 11, 5:10pm EDT

Tue Jun 11, 4:10pm EDT

Tue Jun 11, 3:10pm EDT

Tue Jun 11, 2:10pm EDT

Tue Jun 11, 1:10pm EDT

Tue Jun 11, 12:10pm EDT

Tue Jun 11, 11:10am EDT

Tue Jun 11, 10:10am EDT

Tue Jun 11, 9:10am EDT

Tue Jun 11, 8:10am EDT

Tue Jun 11, 7:10am EDT

Tue Jun 11, 6:10am EDT

Tue Jun 11, 5:10am EDT

Tue Jun 11, 4:10am EDT

Tue Jun 11, 3:10am EDT

Tue Jun 11, 2:10am EDT